Location: Unspecified
(0.0000°N, 0.0000°E)
Time: 08:39:10
(UTC+00:00)

USA 125 - Visible Passes

Search period start: 10 June 2023 00:00
Search period end: 20 June 2023 00:00
Orbit: 363 x 39930 km, 64.0° (Epoch: 09 October)

Date Brightness Start Highest point End Pass type
(mag) Time Alt. Az. Time Alt. Az. Time Alt. Az.
10 Jun ? 13:43:02 10° E 17:59:58 42° NNE 21:56:38 10° N visible
11 Jun ? 13:39:13 10° E 17:55:02 42° NNE 21:49:28 10° N visible
12 Jun ? 13:35:25 10° E 17:50:06 41° NNE 21:42:17 10° N visible
13 Jun ? 13:31:37 10° E 17:45:08 41° NNE 21:35:06 10° N visible
14 Jun ? 13:27:49 10° E 17:40:09 41° NNE 21:27:55 10° N visible
15 Jun ? 13:24:01 10° E 17:35:10 40° NNE 21:20:43 10° N visible
16 Jun ? 13:20:14 10° E 17:30:09 40° NNE 21:13:31 10° N visible
17 Jun ? 13:16:26 10° ENE 17:25:08 40° NNE 21:06:19 10° N visible
18 Jun ? 13:12:39 10° ENE 17:20:05 39° NNE 20:59:07 10° N visible
19 Jun ? 13:08:52 10° ENE 17:15:02 39° NNE 20:51:54 10° N visible
